Regional Weather Roundup
Issued by NWS

Home | Current Version | Previous Version | Graphics & Text | Print | Product List | Glossary On
Versions: 1 2 3 4 5 6 7 8 9 10 11 12 13 14 15 16 17 18 19 20 21 22 23 24 25 26 27 28 29 30 31 32 33 34 35 36 37 38 39 40 41 42 43 44 45 46 47 48 49 50
000
ASUS43 KIND 301509
RWRIN

WEATHER ROUNDUP FOR INDIANA
NATIONAL WEATHER SERVICE INDIANAPOLIS IN
1100 AM EDT THU JUL 30 2015

NOTE: "FAIR" INDICATES FEW OR NO CLOUDS BELOW 12,000 FEET WITH NO
SIGNIFICANT WEATHER AND/OR OBSTRUCTIONS TO VISIBILITY.

* - STATION DOES NOT REPORT WEATHER SUCH AS PRECIPITATION OR FOG.

+ - STATION NOT QUALITY CONTROLLED BY THE NATIONAL WEATHER SERVICE.
    USE DATA WITH CAUTION...ESPECIALLY DEWPOINT AND RELATIVE
    HUMIDITY OBSERVATIONS.

INZ001>003-010>013-019-020-301600-
NORTHWEST INDIANA

CITY           SKY/WX    TMP DP  RH WIND       PRES   REMARKS
GARY /AIRPORT/ SUNNY     81  59  47 NW6       30.07S
KNOX *+        SUNNY     77  59  53 W6        30.06R
LA PORTE +     SUNNY     79  61  53 NW8       30.07S
MICHIGAN CITY+ SUNNY     77  59  53 W8        30.07R
MONTICELLO +   SUNNY     75  63  64 NW7       30.07S
RENSSELAER +   SUNNY     77  64  65 W6        30.09S
VALPARAISO     SUNNY     79  61  53 W8        30.07S

$$

LMZ046-743>745-301600-
SOUTHERN LAKE MICHIGAN

STATION/POSITION TIME  TEMP    WIND        PRES    WAVE
                       AIR SEA DIR/SP/G            HT
                 (UTC) (F)     (DEG/KT/KT) (MB)    (FT)
BURNS HARBOR     1400   72     280/ 12/ 13 1018.3R
MICHIGAN CITY    1400   72     250/ 15/ 16   N/A
5NW MICH CITY    1500   73 73  280/ 12/ 16   N/A     3

$$

INZ004-005-014>016-021>024-301600-
NORTH CENTRAL INDIANA

CITY           SKY/WX    TMP DP  RH WIND       PRES   REMARKS
ELKHART        SUNNY     79  57  47 NW10      30.05S
GOSHEN         SUNNY     77  63  61 W12       30.05R
LOGANSPORT +   SUNNY     77  54  44 NW3       30.08S
PERU/GRISSOM   SUNNY     77  62  58 NW8       30.07S
ROCHESTER +    SUNNY     79  63  57 NW7       30.07S
SOUTH BEND     SUNNY     79  60  52 NW14      30.06R
WARSAW +       SUNNY     77  61  57 W8        30.06S

$$

INZ006>009-017-018-025>027-301600-
NORTHEAST INDIANA

CITY           SKY/WX    TMP DP  RH WIND       PRES   REMARKS
ANGOLA *+      SUNNY     79  63  57 W10       30.03S
AUBURN +       SUNNY     77  59  53 W8        30.05S
FORT WAYNE     SUNNY     77  61  57 W8        30.06S
HUNTINGTON +   SUNNY     76  61  60 W3        30.06S

$$

INZ028-029-035-036-043>045-051>053-301600-
WEST CENTRAL INDIANA

CITY           SKY/WX    TMP DP  RH WIND       PRES   REMARKS
CRAWFORDSVL +  SUNNY     74  58  58 CALM        N/A
GREENCASTLE +  SUNNY     75  57  53 N6        30.12S
LAFAYETTE      SUNNY     77  63  61 NW9       30.08S
TERRE HAUTE    SUNNY     79  62  56 N7        30.12R

$$

INZ030>032-037>040-046>048-054>057-064-065-301600-
CENTRAL INDIANA

CITY           SKY/WX    TMP DP  RH WIND       PRES   REMARKS
COLUMBUS       SUNNY     77  57  50 N6        30.11R
FRANKFORT +    SUNNY     77  64  62 W3        30.11S
GREENWOOD *+   SUNNY     79  55  44 NW6       30.10S
INDIANAPOLIS   MOSUNNY   78  60  53 NW7       30.09S
-EAGLE CREEK   SUNNY     77  62  59 NW5       30.10R
KOKOMO *+      SUNNY     77  63  61 NW10      30.08S
MARION +       SUNNY     75  61  62 W7        30.09R
MT COMFORT *+  SUNNY     79  54  41 NW7       30.10S
SHELBYVILLE    SUNNY     79  62  56 NW6       30.09S
ZIONSVILLE +   SUNNY     77  59  53 NW6       30.11S

$$

INZ033-034-041-042-049-050-058-059-301600-
EAST CENTRAL INDIANA

CITY           SKY/WX    TMP DP  RH WIND       PRES   REMARKS
MUNCIE         SUNNY     76  62  62 NW7       30.08S

$$

INZ060-061-067>069-081>083-085>088-301600-
SOUTHWEST INDIANA

CITY           SKY/WX    TMP DP  RH WIND       PRES   REMARKS
EVANSVILLE     SUNNY     80  62  54 N9        30.13S
HUNTINGBURG *+ SUNNY     81  64  57 NW6       30.13R
WASHINGTON +   SUNNY     78  59  52 N5        30.12S

$$

INZ062-063-066-070>080-084-089>092-301600-
SOUTH CENTRAL AND SOUTHEAST INDIANA

CITY           SKY/WX    TMP DP  RH WIND       PRES   REMARKS
BLOOMINGTON    SUNNY     79  62  56 CALM      30.12S
MADISON *+     SUNNY     77  59  53 NW5       30.13S
NORTH VERNON + SUNNY     79  59  50 NW6       30.11S
SEYMOUR +      SUNNY     81  61  50 NW6       30.10S

$$



USA.gov is the U.S. government's official web portal to all federal, state and local government web resources and services.